Regional Weather Roundup
Issued by NWS Wakefield, VA

Home | Current Version | Previous Version | Graphics & Text | Print | Product List | Glossary On
Versions: 1 2 3 4 5 6 7 8 9 10 11 12 13 14 15 16 17 18 19 20 21 22 23 24 25 26 27
000
ASUS41 KAKQ 201515
RWRAKQ

REGIONAL WEATHER ROUNDUP
NATIONAL WEATHER SERVICE WAKEFIELD VA
1100 AM EDT FRI OCT 20 2017

Note: "fair" indicates few or no clouds below 12,000 feet with no
significant weather and/or obstructions to visibility. * = Denotes
station may not report precipitation (e.g., rain,snow,etc.),
thunder or fog.

VAZ042-051-052>054-056-201600-
NORTHERN VIRGINIA

CITY           SKY/WX    TMP DP  RH WIND       PRES   REMARKS
WASH NATIONAL  PTSUNNY   72  52  49 N12       30.26R
DULLES         PTSUNNY   69  51  52 NW14      30.27S
FORT BELVOIR   SUNNY     70  51  50 NW9       30.25S
QUANTICO       PTSUNNY   65  56  72 S3        30.27S
FREDERICKSBRG* SUNNY     68  54  60 CALM      30.25F
STAFFORD*      SUNNY     69  54  57 CALM      30.30S
WARRENTON      SUNNY     74  47  38 NW5       30.26S
CULPEPER*      SUNNY     71  51  49 N6        30.27F
MANASSAS*      SUNNY     71  54  54 NW10      30.27S
LEESBURG*        N/A    N/A N/A N/A N12         N/A
WINCHESTER     SUNNY     66  50  55 W7        30.28S
FRONT ROYAL*   SUNNY     64  46  52 S5        30.28S
LURAY*         SUNNY     64  46  52 SW6       30.30R
$$

VAZ048-049-060>072-079>083-201600-
CENTRAL AND SOUTH CENTRAL VIRGINIA

CITY           SKY/WX    TMP DP  RH WIND       PRES   REMARKS
RICHMOND       MOSUNNY   71  49  45 N6        30.26S
CHESTERFIELD*  NOT AVBL
PETERSBURG*    SUNNY     68  50  52 N3        30.27S
HANOVER        SUNNY     70  49  47 VRB5      30.28S
TAPPAHANNOCK*  SUNNY     69  44  40 N5        30.26S
QUINTON*       FAIR      69  52  55 NW3       30.26S
CHARLOTTSVILLE SUNNY     71  51  49 CALM      30.27S
GORDONSVILLE*  SUNNY     71  50  47 CALM      30.27R
ORANGE*        SUNNY     70  50  49 CALM      30.27S
LOUISA*        SUNNY     70  52  52 CALM      30.27S
BUMPASS*       FAIR      68  51  54 W3        30.27S
FARMVILLE*     SUNNY     71  54  55 CALM      30.27S
CREWE*         FAIR      70  48  45 CALM      30.28S
FORT PICKETT*  FAIR      69  46  42 N5        30.28S
CHASE CITY*    FAIR      68  49  51 W3        30.29S
CLARKSVILLE*   FAIR      66  46  48 CALM      30.29S
SOUTH HILL*    SUNNY     69  48  47 CALM      30.33S
LAWRENCEVILLE* FAIR      70  49  46 CALM      30.27S
EMPORIA*       SUNNY     68  50  52 N7        30.28S
$$

VAZ088>098-201600-
SOUTHEAST VIRGINIA

CITY           SKY/WX    TMP DP  RH WIND       PRES   REMARKS
NORFOLK        SUNNY     71  56  58 N3        30.24S
VIRGINIA BEACH MOSUNNY   73  52  47 N7        30.23S
NORFOLK NAVAL  MOSUNNY   71  53  52 N7        30.26S
WEST POINT*    SUNNY     67  54  62 CALM      30.27S
SALUDA*        FAIR      64  56  75 NW3       30.25S
NEWPORT NEWS   SUNNY     71  52  50 NE9       30.25S
LANGLEY AFB    MOSUNNY   68  59  73 N12G17    30.24S
FORT EUSTIS    SUNNY     73  55  54 N5        30.23S
WILLIAMSBURG*  SUNNY     68  57  68 NE3       30.26S
HR EXEC AP*    NOT AVBL
FRANKLIN*      SUNNY     69  51  52 NE6       30.26S
US460-WAKEFLD  SUNNY     70  53  54 VRB3      30.26S
$$

VAZ020-022-025-037-045-201600-
WEST CENTRAL AND SOUTHWEST VIRGINIA

CITY           SKY/WX    TMP DP  RH WIND       PRES   REMARKS
STAUNTON*      SUNNY     64  46  53 SW3       30.33S HAZE
WAYNESBORO*    SUNNY     64  48  55 CALM      30.32S
HOT SPRINGS VA SUNNY     57  45  63 N6        30.37S
LYNCHBURG      SUNNY     69  48  47 NE3       30.30S
DANVILLE       SUNNY     68  52  56 N6        30.31R
SOUTH BOSTON*  FAIR      69  46  45 CALM      30.29F
MARTINSVILLE   SUNNY     68  48  48 N7        30.34S
ROANOKE        SUNNY     66  48  52 NE3       30.35S
BLACKSBURG     SUNNY     62  48  60 W3        30.39R
DUBLIN*        SUNNY     64  49  58 N6        30.37S
MARION*        SUNNY     62  42  46 SW5       30.39S
HILLSVILLE*    SUNNY     60  38  44 CALM      30.36S
RICHLANDS*     FAIR      60   8  13 CALM      30.39S
WISE*          SUNNY     63  46  55 NE6       30.38S
ABINGDON*      SUNNY     62  46  55 CALM      30.37S
$$

MDZ021>025-VAZ099-100-201600-
SOUTHERN MARYLAND AND THE DELMARVA PENINSULA

CITY           SKY/WX    TMP DP  RH WIND       PRES   REMARKS
PATUXENT RIVER CLOUDY    71  53  52 NW8       30.24S
BAY BRIDGE APT SUNNY     68  54  60 NW8       30.24S
LEONARDTOWN    NOT AVBL
DOVER          MOSUNNY   70  50  50 NW12      30.21S
GEORGETOWN     SUNNY     70  52  52 N9        30.23S
EASTON         SUNNY     72  50  46 N10G16    30.26S
CAMBRIDGE      SUNNY     70  52  52 N10       30.23S
SALISBURY      SUNNY     70  54  56 NW10      30.22S
OCEAN CITY     SUNNY     71  54  54 N10       30.22S
WALLOPS ISLAND SUNNY     70  54  56 MISG      30.23S
ACCOMACK*      SUNNY     71  54  54 NW3       30.23F
$$

NCZ012>017-030>032-201600-
NORTH CENTRAL AND EASTERN NORTH CAROLINA

CITY           SKY/WX    TMP DP  RH WIND       PRES   REMARKS
ROANOKE RAPIDS FAIR      66  52  59 CALM      30.26S
RALEIGH        MOSUNNY   67  49  52 NE7       30.29S
ELIZABETH CITY SUNNY     69  56  62 N7        30.25S
AHOSKIE*       HAZE      65  51  60 NE5       30.26S VSB 1/4
EDENTON*       SUNNY     69  55  61 CALM      30.25S
CURRITUCK*     SUNNY     66  54  64 CALM      30.25S
KILL DEVIL HLS SUNNY     67  61  80 CALM      30.23S
MANTEO         SUNNY    N/A N/A N/A N6        30.24F
CAPE HATTERAS  SUNNY     73  61  65 NW5       30.24F
TARBORO*       NOT AVBL
GOLDSBORO      SUNNY     68  51  52 N5        30.25S
WASHINGTON     SUNNY     67  51  57 CALM      30.26F
GREENVILLE     SUNNY     64  50  59 CALM      30.26S
NEW BERN       SUNNY     71  53  52 SW5       30.27S
WILMINGTON     SUNNY     73  56  54 CALM      30.27S
$$

VAZ048-201600-
ELSEWHERE

CITY           SKY/WX    TMP DP  RH WIND       PRES   REMARKS
HARRISBURG PA  SUNNY     67  49  52 NW9       30.24S
BALTIMORE      PTSUNNY   70  51  51 NW10      30.24S
ANNAPOLIS      SUNNY     70  54  56 NW8       30.24S
ANDREWS AFB    SUNNY     70  49  48 NW14      30.24S
PHILADELPHIA   MOSUNNY   68  39  34 N9        30.22F
HENDERSON NC   SUNNY     64  45  50 N3        30.29S
GREENSBORO     MOSUNNY   70  48  45 N8        30.30S
ROCKY MOUNT    SUNNY     67  53  61 N5        30.27S
$$

VAZ100-201600-
MARINE

STATION/POSITION TIME  TEMP    WIND        PRES    WAVE   SWELL
                       AIR SEA DIR/SP/G            HT/PER HT/PER
                 (UTC) (F)     (DEG/KT/KT) (MB)    (FT/S) (FT/S)
BRANDYWINE LGT   1412   65     350/ 14/ 16 1023.5
CAPE MAY NJ      1418   66 65  360/  9/ 12 1022.8
LEWES DE         1412   65 65  340/ 10/ 14 1023.1
15NM E FENWICK I 1350   66 67  310/ 14/ 16 1023.0    3/ 9   2/ 9
OCEAN-CITY-INLET 1412   66 66  360/ 10/ 12 1023.5
WACHAPREAGUE VA  1418   71 64  330/  3/  6 1023.8
THOMAS POINT MD  1400   65 66  310/ 11/ 12   N/A
GOOSES REEF MD   1420   68     330/ 14/ 16 1026.3
COVE POINT MD    1418   67     340/ 14/ 16 1024.4
SOLOMONS ISLAND  1418   67 69  320/  6/  8 1023.6
BISHOPS HEAD MD  1418   69 63  340/  8/ 11 1024.1
PINEY POINT MD   1412          330/  8/  9   N/A
POTOMAC MD       1420   66     300/  8/ 10 1023.5
CAMBRIDGE MD     1412   68 67              1024.5
LEWISETTA VA     1412   65 64  330/  5/  7 1024.1
RAPPAHANNOCK LGT 1412          310/  5/  6 1024.7
STINGRAY PT      1420   67     350/  8/ 14 1024.4
YORK RVR RNG VA  1418   64     360/  6/  7 1024.7
YORKTOWN VA      1418   64 69  280/  3/  4 1024.0
JAMESTOWN VA     1420          300/  2/  4   N/A
DOMINION TERM VA 1418   70      40/  5/  8 1024.4
KIPTOPEKE VA     1412      68  320/  6/  8   N/A
CAPE HENRY VA    1418   67     310/  5/  7   N/A
WILLOUBY STN VA  1412   69      CALM  /  1 1024.2
S CRANEY ISL VA  1418   66     350/  5/  5 1024.0
CAPE HENRY BUOY  1400      69                N/A     2/ 8
1ST LANDING BUOY 1420   67                 1024.0
CAPE CHARLES BUO 1351      70                N/A     2/ 9
64NM E OF VA BCH 1350   67 68  280/ 10/ 14 1023.7    3/ 9   3/ 9
DUCK PIER NC     1418   66 69  300/  5/  7 1023.5
44100 DUCK FRF   1405      70                N/A     3/ 8
44056 DUCK FRF   1400      69                N/A     2/ 9
OREGON INLET NC  1412   68 68  270/  4/  6 1023.9
HATTERAS NC      1418   68 69  330/  7/  8 1024.0
DIAMOND SHLS NC  1350   71 81  340/  8/ 12 1023.9    3/ 8   3/ 8
CAPE LOOKOUT NC  1400   68     320/  7/  9 1024.2R
$$




USA.gov is the U.S. government's official web portal to all federal, state and local government web resources and services.